This demonstration page uses our WeatherBlox Daily Observations layout. Learn more.

Left ArrowRight Arrow

39.51506, -84.39828

Hourly Observations for May 11, 2018

Temp ( °F °C ) Dew Point ( °F °C ) Humidity (%) Winds ( mph kmh ) Pressure ( in mb ) Visibility ( mi km ) Precip ( " mm )
12:15 am 00:15 Clear 60 15.7 55 12.8 83 83 N N/A 29.97 1015 10 16 N/A
12:35 am 00:35 Clear 60 15.3 55 12.8 85 85 NNE 3 6 29.97 1015 10 16 N/A
12:55 am 00:55 Clear 61 16 54 12 77 77 NNE 3 6 29.97 1015 10 16 N/A
1:15 am 01:15 Clear 61 16.3 53 11.8 75 75 NNE 3 6 29.97 1015 10 16 N/A
1:35 am 01:35 Clear 61 15.9 55 12.8 82 82 N N/A 29.97 1015 10 16 N/A
1:55 am 01:55 Clear 59 15 55 12.5 85 85 N N/A 30.00 1016 10 16 N/A
2:15 am 02:15 Mostly Cloudy 59 14.8 54 12.4 86 86 N N/A 30.00 1016 10 16 N/A
2:35 am 02:35 Cloudy 59 15.1 56 13.2 89 89 N N/A 30.00 1016 10 16 N/A
2:55 am 02:55 Mostly Cloudy 60 15.8 54 12.2 79 79 N N/A 29.97 1015 10 16 N/A
3:15 am 03:15 Mostly Cloudy 60 15.6 55 12.8 84 84 N N/A 29.97 1015 10 16 N/A
3:35 am 03:35 Mostly Cloudy 60 15.8 55 12.8 82 82 N N/A 29.97 1015 10 16 N/A
3:55 am 03:55 Clear 59 15 54 12.1 83 83 N 3 6 30.03 1017 10 16 N/A
4:15 am 04:15 Clear 58 14.5 54 12.1 86 86 N N/A 30.03 1017 10 16 N/A
4:35 am 04:35 Clear 58 14.5 54 12.3 87 87 N N/A 30.03 1017 10 16 N/A
4:55 am 04:55 Clear 58 14.3 54 12.3 88 88 N N/A 30.03 1017 10 16 N/A
5:15 am 05:15 Clear 57 14 55 12.6 91 91 N N/A 30.03 1017 10 16 N/A
5:35 am 05:35 Partly Cloudy 55 12.6 53 11.6 94 94 N N/A 30.03 1017 10 16 N/A
5:55 am 05:55 Clear 54 12.3 53 11.5 95 95 N N/A 30.03 1017 10 16 N/A
6:15 am 06:15 Clear 55 12.9 53 11.8 93 93 NNE 3 6 30.03 1017 10 16 N/A
6:35 am 06:35 Sunny 55 12.6 53 11.7 94 94 N N/A 30.03 1017 10 16 N/A
6:55 am 06:55 Sunny 55 12.8 54 12 95 95 NNE 5 7 30.03 1017 10 16 N/A
7:15 am 07:15 Sunny 57 13.7 55 12.6 93 93 N N/A 30.03 1017 10 16 N/A
7:35 am 07:35 Partly Cloudy 60 15.3 56 13.1 87 87 N 5 7 30.06 1018 10 16 N/A
7:55 am 07:55 Cloudy 62 16.4 55 12.9 80 80 NE 10 17 30.00 1016 10 16 N/A
8:15 am 08:15 Mostly Cloudy 62 16.5 55 13 80 80 NE 8 13 30.00 1016 10 16 N/A
8:35 am 08:35 Sunny 64 17.6 56 13.4 77 77 ENE 9 15 30.00 1016 10 16 N/A
8:55 am 08:55 Sunny 66 18.7 56 13.5 72 72 ENE 9 15 30.00 1016 10 16 N/A
9:15 am 09:15 Sunny 67 19.3 56 13.2 68 68 E 8 13 30.00 1016 10 16 N/A
9:35 am 09:35 Sunny 68 20 57 13.7 67 67 ENE 8 13 30.00 1016 10 16 N/A
9:55 am 09:55 Sunny 69 20.4 57 14 67 67 ENE 10 17 30.00 1016 10 16 N/A
10:15 am 10:15 Sunny 70 21 57 13.8 64 64 ENE 6 9 30.00 1016 10 16 N/A
10:35 am 10:35 Sunny 71 21.7 57 14 62 62 E 8 13 30.00 1016 10 16 N/A
10:55 am 10:55 Sunny 73 22.5 57 13.8 58 58 SSE 7 11 30.00 1016 10 16 N/A
11:15 am 11:15 Sunny 73 22.8 58 14.3 59 59 SSE 5 7 30.00 1016 10 16 N/A
11:35 am 11:35 Sunny 74 23.5 59 14.9 59 59 ESE 7 11 30.00 1016 10 16 N/A
11:55 am 11:55 Sunny 75 23.9 60 15.3 59 59 ESE 6 9 30.00 1016 10 16 N/A
12:15 pm 12:15 Sunny 76 24.5 60 15.6 58 58 SE 3 6 30.00 1016 10 16 N/A
12:35 pm 12:35 Sunny 77 25.1 61 16.2 58 58 SSW 3 6 29.97 1015 10 16 N/A
12:55 pm 12:55 Sunny 78 25.8 62 16.7 57 57 SW 7 11 29.97 1015 10 16 N/A
1:15 pm 13:15 Sunny 80 26.4 62 16.7 55 55 SW 9 15 29.97 1015 10 16 N/A
1:35 pm 13:35 Sunny 81 27.2 61 16 50 50 SSW 8 13 29.97 1015 10 16 N/A
1:55 pm 13:55 Partly Cloudy 81 27.4 61 16.2 50 50 SSW 10 17 29.94 1014 10 16 N/A
2:15 pm 14:15 Sunny 82 28 61 16.3 49 49 S 9 15 29.91 1013 10 16 N/A
2:35 pm 14:35 Sunny 83 28.2 62 16.8 50 50 SW 12 19 29.91 1013 10 16 N/A
2:55 pm 14:55 Partly Cloudy 85 29.3 64 17.5 49 49 SW 13 20 29.91 1013 10 16 N/A
3:15 pm 15:15 Partly Cloudy 84 28.9 62 16.4 47 47 SW 8 13 29.88 1012 10 16 N/A
3:35 pm 15:35 Partly Cloudy 85 29.7 59 15.2 41 41 SW 15 24 29.88 1012 10 16 N/A
3:55 pm 15:55 Partly Cloudy 87 30.6 59 15 39 39 SW 17 28 29.88 1012 10 16 N/A
4:15 pm 16:15 Partly Cloudy 86 30.1 58 14.7 39 39 SW 20 31 29.88 1012 10 16 N/A
4:35 pm 16:35 Partly Cloudy 86 29.8 58 14.6 40 40 SW 16 26 29.85 1011 10 16 N/A
4:55 pm 16:55 Sunny 85 29.3 59 14.9 42 42 SW 14 22 29.85 1011 10 16 N/A
5:15 pm 17:15 Sunny 84 29 59 14.9 42 42 SW 13 20 29.85 1011 10 16 N/A
5:35 pm 17:35 Sunny 85 29.2 58 14.2 40 40 SW 16 26 29.88 1012 10 16 N/A
5:55 pm 17:55 Sunny 84 28.7 60 15.5 45 45 SW 9 15 29.85 1011 10 16 N/A
6:15 pm 18:15 Sunny 83 28.3 60 15.3 45 45 SW 12 19 29.85 1011 10 16 N/A
6:35 pm 18:35 Sunny 83 28.1 59 15.1 45 45 SW 14 22 29.85 1011 10 16 N/A
6:55 pm 18:55 Sunny 82 27.5 60 15.3 47 47 SW 8 13 29.85 1011 10 16 N/A
7:15 pm 19:15 Sunny 81 27.3 60 15.4 48 48 WSW 6 9 29.85 1011 10 16 N/A
7:35 pm 19:35 Sunny 80 26.9 60 15.7 50 50 WSW 5 7 29.88 1012 10 16 N/A
7:55 pm 19:55 Sunny 78 25.7 61 16.2 56 56 SSW 7 11 29.88 1012 10 16 N/A
8:15 pm 20:15 Sunny 78 25.5 60 15.7 55 55 SW 5 7 29.91 1013 10 16 N/A
8:35 pm 20:35 Sunny 77 24.9 61 16 58 58 SSW 7 11 29.88 1012 10 16 N/A
8:55 pm 20:55 Clear 77 24.9 61 16.2 59 59 SSW 7 11 29.91 1013 10 16 N/A
9:15 pm 21:15 Clear 76 24.3 61 16.1 60 60 SW 7 11 29.91 1013 10 16 N/A
9:35 pm 21:35 Clear 77 24.8 60 15.8 57 57 SW 5 7 29.91 1013 10 16 N/A
9:55 pm 21:55 Clear 73 22.7 63 17 70 70 WSW 3 6 29.91 1013 10 16 N/A
10:15 pm 22:15 Clear 70 21.2 63 17.1 78 78 N N/A 29.91 1013 10 16 N/A
10:35 pm 22:35 Clear 70 21 63 17.4 80 80 N N/A 29.94 1014 10 16 N/A
10:55 pm 22:55 Clear 68 20.1 63 17.2 83 83 N N/A 29.94 1014 10 16 N/A
11:15 pm 23:15 Clear 68 20 63 17.2 84 84 N N/A 29.94 1014 10 16 N/A
11:35 pm 23:35 Clear 67 19.6 63 17.1 86 86 N N/A 29.94 1014 10 16 N/A
11:55 pm 23:55 Clear 65 18.2 62 16.4 89 89 N N/A 29.94 1014 10 16 N/A

Powered by AerisWeather